Flag for Canada Weather past 2 weeks in Fort Simpson, Northwest Territories, Canada

Now
27 °F

Scattered clouds.


Feels Like: 19 °F
Forecast: 27 / 38 °F
Wind: 7 mph from Northwest

Location: Fort Simpson

Current Time: May 3, 2015 at 8:03:30 AM

Latest Report: May 3, 2015 at 7:00 AM


Visibility: 15 mi

Pressure: 30.22 "Hg

Humidity: 69%

Dew point: 18 °F

Location of Fort SimpsonLocation

Historic Weather in Fort Simpson — Graph

°F

Fort Simpson temperature yesterday

Maximum temperature yesterday: 39 °F (at 2:53 PM)
Minimum temperature yesterday: 28 °F (at 6:00 AM)
Average temperature yesterday: 34 °F

Past Weeks' High & Low Weather Summary

 TemperatureHumidityPressure
High61 °F (Apr 29, 5:00 PM)100% (Apr 22, 2:00 PM)30.28 "Hg (Apr 22, 2:00 PM)
Low23 °F (Apr 24, 7:00 AM)21% (Apr 19, 5:00 PM)29.37 "Hg (Apr 28, 9:00 PM)
Average40 °F57%29.90 "Hg
* Reported Apr 18 6:00 AM — May 3 6:00 AM, Fort Simpson, Weather by CustomWeather, © 2015

Note: Actual official high and low records may vary slightly from our data, if they occured in-between our weather recording intervals... More about our weather records

Advertising

Fort Simpson weather history for previous 24 hours

 ConditionsComfort  
Time TempWeatherWind HumidityBarometerVisibility
6:00 AM
Sun, May 3
27 °FPassing clouds.7 mph69%30.21 "Hg15 mi
5:00 AM28 °FPassing clouds.10 mph69%30.20 "Hg15 mi
4:00 AM28 °FPassing clouds.7 mph80%30.19 "Hg15 mi
3:00 AM27 °FPassing clouds.2 mph80%30.19 "Hg15 mi
2:00 AM27 °FPassing clouds.No wind80%30.19 "Hg15 mi
1:00 AM27 °FPassing clouds.2 mph86%30.19 "Hg15 mi
12:00 AM30 °FPassing clouds.2 mph75%30.18 "Hg15 mi
11:00 PM
Sat, May 2
34 °FScattered clouds.3 mph60%30.18 "Hg15 mi
10:00 PM34 °FPartly sunny.6 mph60%30.16 "Hg15 mi
9:00 PM36 °FBroken clouds.10 mph52%30.16 "Hg15 mi
8:00 PM37 °FPartly sunny.8 mph45%30.15 "Hg15 mi
7:00 PM37 °FPartly sunny.10 mph45%30.14 "Hg15 mi
6:00 PM36 °FLight snow. Partly sunny.6 mph65%30.13 "Hg10 mi
5:00 PM36 °FLight snow. Broken clouds.9 mph65%30.12 "Hg12 mi
4:47 PM37 °FLight snow. Partly sunny.14 mph60%30.11 "Hg15 mi
4:00 PM36 °FLight snow. Overcast.16 mph65%30.12 "Hg15 mi
3:00 PM37 °FOvercast.13 mph52%30.11 "Hg15 mi
2:53 PM39 °FPartly sunny.10 mph52%30.10 "Hg15 mi
2:00 PM36 °FPartly sunny.18 mph60%30.10 "Hg15 mi
1:00 PM36 °FPartly sunny.17 mph56%30.09 "Hg15 mi
12:00 PM36 °FPartly sunny.14 mph60%30.08 "Hg15 mi
11:00 AM34 °FPartly sunny.15 mph65%30.07 "Hg15 mi
10:00 AM32 °FPartly sunny.15 mph69%30.06 "Hg15 mi
9:00 AM30 °FBroken clouds.13 mph75%30.06 "Hg15 mi
8:00 AM30 °FBroken clouds.9 mph75%30.04 "Hg15 mi
Weather by CustomWeather, © 2015

See weather overviewHow to use our weather pages